Home   Weather   South Fairfield   Past weeks
Flag for USA

Past Weather in South Fairfield, Michigan, USA — Yesterday and Last 2 Weeks

Now
32 °F

Sunny.


Feels Like: 23 °F
Forecast: 33 / 25 °F
Wind: 12 mph from West

Location: Toledo Suburban Airport

Current Time: Dec 15, 2019 at 10:53:06 am

Latest Report: Dec 15, 2019 at 10:15 am


Visibility: 10 mi

Pressure: 30.04 "Hg

Humidity: 64%

Dew Point: 21 °F

Location of South FairfieldLocation

Past Weather in South Fairfield — Graph

°F

South Fairfield Temperature Yesterday

Maximum temperature yesterday: 44 °F (at 3:16 pm)
Minimum temperature yesterday: 31 °F (at 12:15 am)
Average temperature yesterday: 36 °F

High & Low Weather Summary for the Past Weeks

 TemperatureHumidityPressure
High52 °F (Dec 9, 7:16 pm)96% (Dec 14, 2:35 am)30.58 "Hg (Dec 14, 2:35 am)
Low13 °F (Dec 12, 12:15 am)52% (Dec 6, 1:36 pm)29.30 "Hg (Dec 1, 8:15 am)
Average35 °F76%29.94 "Hg
* Reported Nov 30 9:15 am — Dec 15 9:36 am, South Fairfield. Weather by CustomWeather, © 2019

Note: Actual official high and low records may vary slightly from our data, if they occured in-between our weather recording intervals... More about our weather records

South Fairfield Weather History for the Previous 24 Hours

Scroll right to see more
 ConditionsComfort  
Time TempWeatherWind HumidityBarometerVisibility
9:36 am
Sun, Dec 15
32 °FSunny.12 mph66%30.03 "Hg10 mi
9:15 am31 °FSunny.8 mph67%30.02 "Hg10 mi
8:56 am30 °FScattered clouds.6 mph70%30.01 "Hg10 mi
8:35 am30 °FOvercast.8 mph71%30.00 "Hg10 mi
8:16 am30 °FPartly sunny.8 mph73%29.99 "Hg10 mi
7:55 am30 °FPartly sunny.9 mph73%29.97 "Hg10 mi
7:35 am30 °FOvercast.7 mph72%29.96 "Hg10 mi
7:15 am30 °FOvercast.8 mph73%29.95 "Hg10 mi
6:55 am30 °FOvercast.10 mph75%29.94 "Hg10 mi
6:35 am30 °FMostly cloudy.7 mph75%29.93 "Hg10 mi
6:15 am31 °FOvercast.10 mph76%29.92 "Hg10 mi
5:55 am31 °FMostly cloudy.9 mph76%29.90 "Hg10 mi
5:35 am31 °FOvercast.10 mph78%29.89 "Hg10 mi
5:15 am31 °FOvercast.9 mph77%29.88 "Hg10 mi
4:55 am31 °FOvercast.8 mph75%29.87 "Hg10 mi
4:36 am31 °FOvercast.8 mph74%29.86 "Hg10 mi
4:15 am31 °FMostly cloudy.7 mph76%29.85 "Hg10 mi
3:55 am31 °FOvercast.8 mph75%29.85 "Hg10 mi
3:36 am31 °FOvercast.8 mph76%29.84 "Hg10 mi
2:55 am31 °FOvercast.12 mph77%29.81 "Hg7 mi
2:36 am31 °FOvercast.12 mph77%29.80 "Hg7 mi
2:15 am31 °FOvercast.15 mph76%29.79 "Hg7 mi
1:55 am32 °FOvercast.14 mph76%29.78 "Hg10 mi
1:35 am31 °FOvercast.10 mph76%29.78 "Hg7 mi
12:56 am32 °FMostly cloudy.16 mph80%29.76 "Hg7 mi
12:36 am33 °FOvercast.18 mph81%29.75 "Hg7 mi
12:15 am33 °FMostly cloudy.9 mph82%29.73 "Hg10 mi
11:56 pm
Sat, Dec 14
33 °FOvercast.6 mph84%29.72 "Hg10 mi
11:35 pm33 °FMostly cloudy.8 mph85%29.72 "Hg10 mi
11:15 pm34 °FMostly cloudy.8 mph87%29.72 "Hg10 mi
10:55 pm34 °FOvercast.8 mph90%29.71 "Hg7 mi
10:35 pm35 °FMostly cloudy.8 mph89%29.70 "Hg7 mi
9:56 pm35 °FOvercast.7 mph89%29.68 "Hg10 mi
9:36 pm35 °FFog.7 mph92%29.68 "Hg4 mi
9:16 pm35 °FLight rain. Low clouds.3 mph91%29.68 "Hg2 mi
8:56 pm36 °FDrizzle. Mostly cloudy.3 mph87%29.67 "Hg2 mi
8:35 pm36 °FMostly cloudy.3 mph85%29.67 "Hg7 mi
8:15 pm36 °FMostly cloudy.5 mph85%29.67 "Hg7 mi
7:56 pm36 °FMostly cloudy.6 mph85%29.66 "Hg7 mi
7:36 pm36 °FOvercast.6 mph84%29.66 "Hg7 mi
7:15 pm36 °FMostly cloudy.7 mph84%29.66 "Hg7 mi
6:55 pm36 °FMostly cloudy.7 mph84%29.65 "Hg7 mi
6:36 pm36 °FMostly cloudy.8 mph82%29.65 "Hg7 mi
6:15 pm37 °FMostly cloudy.7 mph81%29.64 "Hg7 mi
5:56 pm37 °FOvercast.7 mph80%29.63 "Hg7 mi
5:35 pm37 °FMostly cloudy.3 mph80%29.63 "Hg7 mi
5:15 pm38 °FMostly cloudy.5 mph78%29.63 "Hg7 mi
4:36 pm41 °FOvercast.5 mph71%29.62 "Hg10 mi
4:16 pm41 °FOvercast.7 mph70%29.61 "Hg10 mi
3:55 pm42 °FOvercast.7 mph68%29.60 "Hg10 mi
3:36 pm43 °FPartly sunny.7 mph63%29.60 "Hg10 mi
3:16 pm44 °FSunny.9 mph64%29.59 "Hg10 mi
2:55 pm44 °FScattered clouds.6 mph64%29.59 "Hg10 mi
2:35 pm43 °FPartly sunny.6 mph66%29.58 "Hg10 mi
2:15 pm42 °FScattered clouds.8 mph66%29.59 "Hg10 mi
1:36 pm42 °FOvercast.5 mph67%29.58 "Hg10 mi
12:36 pm43 °FPartly sunny.6 mph66%29.58 "Hg10 mi
12:15 pm42 °FScattered clouds.5 mph68%29.59 "Hg10 mi
11:56 am40 °FPartly sunny.8 mph72%29.60 "Hg10 mi
11:35 am39 °FMostly cloudy.5 mph75%29.60 "Hg7 mi
11:15 am38 °FMostly cloudy.5 mph79%29.61 "Hg7 mi
10:56 am38 °FOvercast.3 mph81%29.61 "Hg7 mi
10:36 am37 °FPartly sunny.3 mph86%29.62 "Hg7 mi
10:15 am36 °FFog.No wind89%29.62 "Hg5 mi
Weather by CustomWeather, © 2019

See weather overview

Advertising